This is the latest recevied weather packets stored in our database for station/object LX0APE-4. If no packets are shown the sender has not sent any weather packets the latest 10 day(s).
| Time | Temp. | Humidity | Pressure | Rain* | Wind** | Luminosity | Snow |
|---|---|---|---|---|---|---|---|
| 1777550824 | 20° C | 19% | 5021 hPa | 0 mm | - | - | - |
| 1777550524 | 20° C | 19% | 5021.1 hPa | 0 mm | - | - | - |
| 1777550224 | 20° C | 18% | 5021.1 hPa | 0 mm | - | - | - |
| 1777549924 | 20° C | 19% | 5021.1 hPa | 0 mm | - | - | - |
| 1777549624 | 19.44° C | 20% | 5021.2 hPa | 0 mm | - | - | - |
| 1777549324 | 19.44° C | 22% | 5021.3 hPa | 0 mm | - | - | - |
| 1777549029 | 18.89° C | 22% | 5021.2 hPa | 0 mm | - | - | - |
| 1777549024 | 18.89° C | 22% | 5021.2 hPa | 0 mm | - | - | - |
| 1777548724 | 18.33° C | 22% | 5021.2 hPa | 0 mm | - | - | - |
| 1777548424 | 18.33° C | 22% | 5021.3 hPa | 0 mm | - | - | - |
| 1777548129 | 17.78° C | 22% | 5021.2 hPa | 0 mm | - | - | - |
| 1777548124 | 17.78° C | 22% | 5021.2 hPa | 0 mm | - | - | - |
| 1777547824 | 17.78° C | 22% | 5021.2 hPa | 0 mm | - | - | - |
| 1777547524 | 17.78° C | 23% | 5021.3 hPa | 0 mm | - | - | - |
| 1777547224 | 17.22° C | 25% | 5021.4 hPa | 0 mm | - | - | - |
| 1777546924 | 16.67° C | 25% | 5021.6 hPa | 0 mm | - | - | - |
| 1777546624 | 16.11° C | 25% | 5021.6 hPa | 0 mm | - | - | - |
| 1777546324 | 16.11° C | 24% | 5021.6 hPa | 0 mm | - | - | - |
| 1777546024 | 16.11° C | 24% | 5021.6 hPa | 0 mm | - | - | - |
| 1777545724 | 15.56° C | 26% | 5021.7 hPa | 0 mm | - | - | - |
| 1777545424 | 15.56° C | 25% | 5021.7 hPa | 0 mm | - | - | - |
| 1777545124 | 15.56° C | 26% | 5021.4 hPa | 0 mm | - | - | - |
| 1777544824 | 15° C | 26% | 5021.6 hPa | 0 mm | - | - | - |
| 1777544524 | 15° C | 28% | 5021.6 hPa | 0 mm | - | - | - |
| 1777543925 | 14.44° C | 28% | 5021.7 hPa | 0 mm | - | - | - |
* Rain latest hour (hover to see other rain measurements)
** Current wind speed in m/s (hover to see current wind gust speed)